GPS BIIF-5 (PRN 30)

Last updated on Thu Oct 23 2025 00:03:25 GMT+0000 (Coordinated Universal Time)

1 39533U 14008A 25294.85983136 .00000056 00000+0 00000+0 0 9990 2 39533 53.6226 159.0410 0078360 226.1563 133.2938 2.00571491 84907
UTC large
Height (km)
Speed (km/s)
/
Latitude / Longitude
Inclination (degrees)
Orbital Period (minutes)
Azimuth
Elevation
Range (km)
Doppler Factor

Next 0 passes for location: London (51.5072 / 0.1276)

Sorry there are no passes over London.